Location: Gensac
(43.2177°N, 1.1313°E)
Time: 10:18:54
(UTC+00:00)

IGS 5A - Pass Details

Date: 14 March 2026
Orbit: 551 x 554 km, 97.4° (Epoch: 8 January)

Event Time Altitude Azimuth Distance (km) Brightness Sun altitude
Rises 05:33:12 0° 14° (NNE) 2,735 7.1 -7.5°
Reaches altitude 10° 05:35:21 10° 16° (NNE) 1,836 6.3 -7.1°
Maximum altitude 05:39:19 73° 102° (ESE) 580 3.6 -6.4°
Drops below altitude 10° 05:43:15 10° 187° (S) 1,821 5.9 -5.6°
Sets 05:45:22 0° 189° (S) 2,710 6.7 -5.3°
